Flag for Uruguay Weather past 2 weeks in Minas, Uruguay

Now
73 °F

Passing clouds.


Feels Like: 76 °F
Forecast: N/A
Wind: 13 mph from East

Location: Capitan Corbeta

Current Time: Jan 31, 2015 at 8:51:44 PM

Latest Report: Jan 31, 2015 at 8:00 PM


Visibility: N/A

Pressure: 30.01 "Hg

Humidity: 61%

Dew point: 59 °F

Location of MinasLocation

Historic Weather in Minas — Graph

°F

Minas temperature yesterday

Maximum temperature yesterday: 70 °F (at 1:00 PM)
Minimum temperature yesterday: 55 °F (at 8:00 AM)
Average temperature yesterday: 64 °F

Past Weeks' High & Low Weather Summary

 TemperatureHumidityPressure
High95 °F (Jan 27, 2:00 PM)94% (Jan 18, 7:00 AM)30.24 "Hg (Jan 18, 7:00 AM)
Low54 °F (Jan 21, 6:00 AM)39% (Jan 18, 4:00 PM)29.71 "Hg (Jan 27, 3:00 PM)
Average71 °F70%29.96 "Hg
* Reported Jan 16 7:00 PM — Jan 31 7:00 PM, Minas, Weather by CustomWeather, © 2014

Note: Actual official high and low records may vary slightly from our data, if they occured in-between our weather recording intervals... More about our weather records

Advertising

Minas weather history for previous 24 hours

 ConditionsComfort  
Time TempWeatherWind HumidityBarometerVisibility
7:00 PM
Jan 31
75 °FPassing clouds.17 mph54%30.01 "HgN/A
6:00 PM77 °FPassing clouds.17 mph54%30.04 "HgN/A
5:00 PM77 °FPassing clouds.15 mph54%30.04 "HgN/A
4:00 PM77 °FPassing clouds.16 mph54%30.07 "HgN/A
3:00 PM77 °FPassing clouds.17 mph47%30.09 "HgN/A
2:00 PM75 °FPassing clouds.14 mph50%30.12 "HgN/A
1:00 PM75 °FPassing clouds.6 mph44%30.12 "HgN/A
12:00 PM73 °FPassing clouds.No wind50%30.15 "HgN/A
11:00 AM73 °FPassing clouds.5 mph61%30.12 "HgN/A
10:00 AM66 °FSunny.7 mph73%30.15 "Hg10 mi
9:00 AM63 °FSunny.6 mph83%30.15 "Hg10 mi
8:00 AM61 °FSunny.3 mph88%30.15 "Hg10 mi
7:00 AM59 °FSunny.3 mph88%30.15 "Hg10 mi
6:00 AM57 °FClear.3 mph88%30.12 "Hg10 mi
4:00 AM59 °FClear.3 mph82%30.12 "Hg10 mi
3:00 AM59 °FClear.3 mph82%30.12 "Hg10 mi
2:00 AM59 °FClear.6 mph82%30.15 "Hg10 mi
1:00 AM61 °FClear.7 mph77%30.12 "Hg10 mi
12:00 AM63 °FClear.9 mph73%30.12 "Hg10 mi
11:00 PM
Jan 30
63 °FClear.7 mph68%30.12 "Hg10 mi
10:00 PM63 °FClear.7 mph68%30.12 "Hg10 mi
9:00 PM63 °FClear.6 mph68%30.12 "Hg10 mi
8:00 PM68 °FSunny.10 mph53%30.09 "Hg10 mi
Weather by CustomWeather, © 2014

See weather overviewHow to use our weather pages